This is the latest recevied weather packets stored in our database for station/object W5MAI. If no packets are shown the sender has not sent any weather packets the latest 10 day(s).
| Time | Temp. | Humidity | Pressure | Rain* | Wind** | Luminosity | Snow |
|---|---|---|---|---|---|---|---|
| 1778029412 | 27.78° C | 76% | 1007.7 hPa | 0 mm | - | 11 W/m² | - |
| 1778028821 | 27.78° C | 75% | 1007.7 hPa | 0 mm | - | 25 W/m² | - |
| 1778028248 | 28.33° C | 74% | 1007.7 hPa | 0 mm | - | 37 W/m² | - |
| 1778027608 | 28.89° C | 74% | 1007.6 hPa | 0 mm | - | 51 W/m² | - |
| 1778027043 | 28.89° C | 72% | 1007.7 hPa | 0 mm | - | 49 W/m² | - |
| 1778026416 | 28.89° C | 71% | 1007.6 hPa | 0 mm | - | 69 W/m² | - |
| 1778025819 | 28.89° C | 70% | 1007.5 hPa | 0 mm | - | 137 W/m² | - |
| 1778025248 | 28.89° C | 70% | 1007.5 hPa | 0 mm | - | 91 W/m² | - |
| 1778024609 | 28.89° C | 69% | 1007.5 hPa | 0 mm | - | 123 W/m² | - |
| 1778024042 | 29.44° C | 68% | 1007.5 hPa | 0 mm | - | 185 W/m² | - |
| 1778023460 | 28.89° C | 69% | 1007.4 hPa | 0 mm | - | 199 W/m² | - |
| 1778022214 | 29.44° C | 68% | 1007.5 hPa | 0 mm | - | 294 W/m² | - |
| 1778021640 | 29.44° C | 68% | 1007.4 hPa | 0 mm | - | 411 W/m² | - |
| 1778021062 | 29.44° C | 69% | 1007.3 hPa | 0 mm | - | 366 W/m² | - |
| 1778020428 | 29.44° C | 68% | 1007.2 hPa | 0 mm | - | 306 W/m² | - |
| 1778019843 | 29.44° C | 69% | 1007.4 hPa | 0 mm | - | 455 W/m² | - |
| 1778019262 | 29.44° C | 68% | 1007.4 hPa | 0 mm | - | 399 W/m² | - |
| 1778018619 | 29.44° C | 68% | 1007.4 hPa | 0 mm | - | 468 W/m² | - |
| 1778018051 | 29.44° C | 69% | 1007.4 hPa | 0 mm | - | 548 W/m² | - |
| 1778017423 | 28.89° C | 69% | 1007.6 hPa | 0 mm | - | 504 W/m² | - |
| 1778016845 | 28.89° C | 69% | 1007.9 hPa | 0 mm | - | 452 W/m² | - |
| 1778016207 | 28.89° C | 69% | 1008.1 hPa | 0 mm | - | 675 W/m² | - |
| 1778015633 | 28.33° C | 70% | 1008.1 hPa | 0 mm | - | 506 W/m² | - |
| 1778015061 | 28.33° C | 70% | 1008.2 hPa | 0 mm | - | 545 W/m² | - |
| 1778014423 | 28.33° C | 71% | 1008.5 hPa | 0 mm | - | 262 W/m² | - |
* Rain latest hour (hover to see other rain measurements)
** Current wind speed in m/s (hover to see current wind gust speed)